WA0FW-1 Weather Reports


time (UTC)temp
F
wind
direction
speed
knots
gust
knots
rain 1hr
in
rain 24hr
in
rain mn
in
humidity
%
barometer
mb
20210515042309 54 157 0.0 1.7 0.00 0.02 0.02 66 1019.5
20210515041409 54 0 0.0 0.0 0.00 0.02 0.02 67 1019.8
20210515040509 54 0 0.0 0.0 0.00 0.02 0.02 67 1019.8
20210515035609 55 112 0.0 0.9 0.00 0.02 0.02 66 1019.8
20210515034709 54 112 0.9 0.9 0.00 0.02 0.02 66 1020.2
20210515033809 55 0 0.0 0.0 0.00 0.02 0.02 66 1020.2
20210515032909 55 0 0.0 0.0 0.00 0.02 0.02 65 1020.2
20210515032008 55 0 0.0 0.0 0.00 0.02 0.02 65 1020.2
20210515031109 55 0 0.0 0.0 0.00 0.02 0.02 65 1020.2
20210515030208 55 0 0.0 0.0 0.00 0.02 0.02 65 1020.2
20210515025309 55 0 0.0 0.0 0.00 0.02 0.02 66 1020.2
20210515024408 55 0 0.0 0.0 0.00 0.02 0.02 66 1020.5
20210515023508 55 0 0.0 0.0 0.00 0.02 0.02 67 1020.5
20210515022608 55 0 0.0 0.0 0.00 0.02 0.02 68 1020.5
20210515021708 55 0 0.0 0.0 0.00 0.02 0.02 67 1020.5
20210515020808 54 0 0.0 0.0 0.00 0.02 0.02 69 1020.2
20210515015908 54 0 0.0 0.0 0.00 0.02 0.02 71 1020.2
20210515015008 53 0 0.0 0.0 0.00 0.02 0.02 72 1020.2
20210515014108 53 0 0.0 0.0 0.00 0.02 0.02 73 1020.2
20210515013208 53 0 0.0 0.0 0.00 0.02 0.02 73 1020.5
20210515012308 52 0 0.0 0.0 0.00 0.02 0.02 74 1020.2
20210515011408 52 0 0.0 0.0 0.00 0.02 0.02 75 1020.5
20210515010508 52 0 0.0 0.0 0.00 0.02 0.02 74 1020.2
20210515005608 52 0 0.0 0.0 0.00 0.02 0.02 74 1020.2
20210515004708 52 0 0.0 0.0 0.00 0.02 0.02 75 1020.5
20210515003808 52 0 0.0 0.0 0.00 0.02 0.02 75 1020.5
20210515002908 52 0 0.0 0.0 0.00 0.02 0.02 75 1020.5
20210515002008 52 0 0.0 0.0 0.00 0.02 0.02 75 1020.5
20210515001109 52 0 0.0 0.0 0.00 0.02 0.02 74 1020.5
20210515000208 52 0 0.0 0.0 0.00 0.02 0.02 74 1020.5
20210514235308 53 135 0.0 1.7 0.00 0.02 0.02 70 1020.8
20210514234408 54 135 1.7 1.7 0.00 0.02 0.02 70 1020.8
20210514233508 56 0 0.0 0.0 0.00 0.02 0.02 69 1020.8
20210514232608 56 0 0.0 0.0 0.00 0.02 0.02 68 1020.8
20210514231708 57 0 0.0 0.0 0.00 0.02 0.02 65 1020.8
20210514230808 58 135 0.0 0.9 0.00 0.02 0.02 65 1020.8
20210514225908 58 135 0.0 0.9 0.00 0.02 0.02 65 1020.8
20210514225008 58 0 0.0 0.0 0.00 0.02 0.02 66 1020.8
20210514224108 58 0 0.0 0.0 0.00 0.02 0.02 65 1020.5
20210514223208 58 0 0.0 0.0 0.00 0.02 0.02 64 1020.8
20210514222308 59 0 0.0 0.0 0.00 0.02 0.02 62 1020.8
20210514221408 59 0 0.0 0.0 0.00 0.02 0.02 59 1020.8
20210514220508 59 0 0.0 0.0 0.00 0.02 0.02 61 1020.8
20210514215608 58 0 0.0 0.0 0.00 0.02 0.02 62 1020.8
20210514214708 58 0 0.0 0.0 0.00 0.02 0.02 63 1020.8
20210514213823 58 0 0.0 0.0 0.00 0.02 0.02 64 1020.8
20210514212908 57 0 0.0 0.0 0.00 0.02 0.02 65 1020.8
20210514212008 57 0 0.0 0.0 0.00 0.02 0.02 65 1021.2
20210514211108 58 0 0.0 0.0 0.00 0.02 0.02 65 1020.8
20210514210208 58 0 0.0 0.0 0.00 0.02 0.02 65 1021.2
20210514205307 57 0 0.0 0.0 0.00 0.02 0.02 66 1021.2
20210514204408 57 0 0.0 0.0 0.00 0.02 0.02 65 1021.5
20210514203508 57 135 0.0 0.9 0.00 0.02 0.02 67 1021.9
20210514202608 57 0 0.0 0.0 0.00 0.02 0.02 68 1021.9
20210514201708 57 0 0.0 0.0 0.00 0.02 0.02 70 1021.9
20210514200808 56 0 0.0 0.0 0.00 0.02 0.02 71 1021.9
20210514195907 57 0 0.0 0.0 0.00 0.02 0.02 70 1022.2
20210514195008 57 0 0.0 0.0 0.00 0.02 0.02 70 1022.2
20210514194108 57 0 0.0 0.0 0.02 0.02 0.02 71 1022.2
20210514193207 56 0 0.0 0.0 0.02 0.02 0.02 73 1022.5
20210514192308 56 135 0.0 0.9 0.02 0.02 0.02 72 1022.5
20210514191407 56 135 0.9 0.9 0.02 0.02 0.02 71 1022.5
20210514190508 58 0 0.0 0.0 0.02 0.02 0.02 70 1022.5
20210514185607 58 0 0.0 0.0 0.02 0.02 0.02 70 1022.9
20210514184708 58 0 0.0 0.0 0.00 0.00 0.00 70 1022.9
20210514183808 58 0 0.0 0.0 0.00 0.00 0.00 69 1022.9
20210514182908 58 0 0.0 0.0 0.00 0.00 0.00 67 1022.9
20210514182007 61 0 0.0 0.0 0.00 0.00 0.00 62 1022.9
20210514181108 61 0 0.0 0.0 0.00 0.00 0.00 58 1022.9
20210514180207 62 135 0.0 1.7 0.00 0.00 0.00 54 1022.9
20210514175308 64 156 1.7 1.7 0.00 0.00 0.00 53 1022.5
20210514174408 65 198 1.7 2.6 0.00 0.00 0.00 53 1022.5
20210514173507 64 292 1.7 1.7 0.00 0.00 0.00 53 1022.5
20210514172607 64 0 0.0 0.0 0.00 0.00 0.00 53 1022.5
20210514171707 65 162 0.0 1.7 0.00 0.00 0.00 49 1022.5
20210514170807 66 257 0.0 2.6 0.00 0.00 0.00 48 1022.5
20210514165907 67 301 0.0 1.7 0.00 0.00 0.00 46 1022.5
20210514165007 67 135 0.0 0.9 0.00 0.00 0.00 44 1022.5
20210514164107 65 135 0.9 0.9 0.00 0.00 0.00 45 1022.5
20210514163207 64 0 0.0 0.0 0.00 0.00 0.00 44 1022.5
20210514162307 63 100 0.0 1.7 0.00 0.00 0.00 44 1022.5
20210514161407 63 127 0.9 1.7 0.00 0.00 0.00 44 1022.9
20210514160507 63 142 1.7 1.7 0.00 0.00 0.00 42 1022.5
20210514155607 64 156 1.7 1.7 0.00 0.00 0.00 42 1022.5
20210514154707 64 292 0.0 5.2 0.00 0.00 0.00 43 1022.5
20210514153807 64 292 5.2 5.2 0.00 0.00 0.00 42 1022.5
20210514152907 64 0 0.0 0.0 0.00 0.00 0.00 43 1022.5
20210514152007 63 121 0.0 0.9 0.00 0.00 0.00 43 1022.5
20210514151107 62 58 0.0 1.7 0.00 0.00 0.00 45 1022.5
20210514150207 61 0 0.0 0.0 0.00 0.00 0.00 44 1022.9
20210514145307 61 0 0.0 0.0 0.00 0.00 0.00 45 1022.9
20210514144407 61 0 0.0 0.0 0.00 0.00 0.00 45 1023.2
20210514143507 60 0 0.0 0.0 0.00 0.00 0.00 46 1022.9
20210514142607 60 0 0.0 0.0 0.00 0.00 0.00 46 1023.2
20210514141707 60 0 0.0 0.0 0.00 0.00 0.00 47 1023.2
20210514140807 58 0 0.0 0.0 0.00 0.00 0.00 47 1023.2
20210514135907 58 0 0.0 0.0 0.00 0.00 0.00 47 1023.2
20210514135007 57 0 0.0 0.0 0.00 0.00 0.00 47 1023.2
20210514134107 57 0 0.0 0.0 0.00 0.00 0.00 47 1023.6
20210514133207 56 0 0.0 0.0 0.00 0.00 0.00 47 1023.2
20210514132307 56 0 0.0 0.0 0.00 0.00 0.00 48 1023.2
20210514131407 55 0 0.0 0.0 0.00 0.00 0.00 49 1023.6
20210514130507 55 0 0.0 0.0 0.00 0.00 0.00 49 1023.6
20210514125607 55 0 0.0 0.0 0.00 0.00 0.00 49 1023.6
20210514124707 55 0 0.0 0.0 0.00 0.00 0.00 48 1023.6
20210514123807 55 0 0.0 0.0 0.00 0.00 0.00 49 1023.6
20210514122907 55 0 0.0 0.0 0.00 0.00 0.00 48 1023.6
20210514122007 55 0 0.0 0.0 0.00 0.00 0.00 48 1023.2
20210514121107 55 0 0.0 0.0 0.00 0.00 0.00 48 1023.2
20210514113507 54 0 0.0 0.0 0.00 0.00 0.00 50 1022.9
20210514112607 54 0 0.0 0.0 0.00 0.00 0.00 50 1022.9
20210514111707 54 0 0.0 0.0 0.00 0.00 0.00 50 1022.9
20210514110807 54 0 0.0 0.0 0.00 0.00 0.00 52 1022.9
20210514105006 53 0 0.0 0.0 0.00 0.00 0.00 51 1023.2
20210514104106 53 0 0.0 0.0 0.00 0.00 0.00 51 1023.2
20210514103206 53 0 0.0 0.0 0.00 0.00 0.00 51 1023.2
20210514101406 53 0 0.0 0.0 0.00 0.00 0.00 50 1023.2
20210514100506 53 0 0.0 0.0 0.00 0.00 0.00 49 1023.2
20210514093806 53 0 0.0 0.0 0.00 0.00 0.00 48 1023.2
20210514092906 53 0 0.0 0.0 0.00 0.00 0.00 48 1023.2
20210514081706 55 0 0.0 0.0 0.00 0.00 0.00 45 1023.2
20210514074106 56 0 0.0 0.0 0.00 0.00 0.00 44 1023.2
20210514073206 56 0 0.0 0.0 0.00 0.00 0.00 44 1023.2
20210514070506 56 0 0.0 0.0 0.00 0.00 0.00 44 1023.6
20210514064706 56 0 0.0 0.0 0.00 0.00 0.00 45 1023.6
20210514062006 54 0 0.0 0.0 0.00 0.00 0.00 46 1023.6
20210514054410 52 0 0.0 0.0 0.00 0.00 0.00 48 1023.6
20210514053510 52 0 0.0 0.0 0.00 0.00 0.00 48 1023.6
20210514052609 53 0 0.0 0.0 0.00 0.00 0.00 47 1023.6
20210514051709 53 0 0.0 0.0 0.00 0.00 0.00 48 1023.6
20210514045009 53 0 0.0 0.0 0.00 0.00 0.00 46 1023.6